National Weather Service Raw Text Product

Displaying AFOS PIL: RWRIA Received: 2018-01-12 14:00 UTC


444 
ASUS43 KDMX 121406
RWRIA 

WEATHER ROUNDUP FOR IOWA
NATIONAL WEATHER SERVICE DES MOINES IA
800 AM CST FRI JAN 12 2018

NOTE: "FAIR" INDICATES FEW OR NO CLOUDS BELOW 12,000 FEET WITH NO
SIGNIFICANT WEATHER AND/OR OBSTRUCTIONS TO VISIBILITY.

* - THESE STATIONS ARE NOT NWS STATIONS...THUS NOT UNDER NWS
QUALITY CONTROL.  THEY ALSO DO NOT REPORT WEATHER SUCH 
AS PRECIPITATION OR FOG.  

IAZ001>003-012>014-020>022-031>034-043>046-121500-
   NORTHWEST IOWA
  
CITY           SKY/WX    TMP DP  RH WIND       PRES   REMARKS
CARROLL *      CLOUDY    -6 -13  71 N14       30.36S WCI -26          
CHEROKEE *     CLOUDY    -6 -13  73 N9        30.40R WCI -23          
DENISON *      CLOUDY    -4 -11  71 NW9       30.40R WCI -20          
LE MARS *      CLOUDY    -6 -13  71 N7        30.42S WCI -20          
ORANGE CITY *  CLOUDY    -6 -11  77 N9        30.38R WCI -22          
SHELDON *      CLOUDY    -8 -15  71 N10       30.37R WCI -26          
SIOUX CITY     CLOUDY    -3 -11  68 N12       30.44R WCI -21          
SPENCER        CLOUDY    -8 -15  71 N12       30.38R WCI -27          
STORM LAKE *   CLOUDY    -8 -13  77 N13       30.35R WCI -28          
$$
 
IAZ055>058-069>071-079>083-090>094-121500-
   SOUTHWEST IOWA
  
CITY           SKY/WX    TMP DP  RH WIND       PRES   REMARKS
ATLANTIC *     CLOUDY    -2 -11  65 N14       30.36R WCI -21          
AUDUBON *      CLOUDY    -4 -11  71 NW7       30.35R WCI -18          
CLARINDA *     CLOUDY     0  -8  71 N17       30.37R WCI -21          
COUNCIL BLFS * CLOUDY    -2  -6  84 N8G15     30.37R WCI -17          
CRESTON *      CLOUDY    -2  -9  71 N15       30.31R WCI -22          
HARLAN  *      CLOUDY    -4  -9  77 N12       30.41R WCI -22          
LAMONI         CLOUDY    -1  -9  68 N14       30.28R WCI -20          
RED OAK *      CLOUDY     0  -9  65 N13       30.38R WCI -18          
SHENANDOAH *   CLOUDY     1  -8  66 N13       30.39S WCI -16          
$$
 
IAZ047>049-059>061-072>074-084-121500-
   CENTRAL IOWA
  
CITY           SKY/WX    TMP DP  RH WIND       PRES   REMARKS
AMES           CLOUDY    -6 -11  79 N17       30.35R WCI -28          
ANKENY *       CLOUDY    -4 -11  71 N15       30.35R WCI -25          
BOONE *        CLOUDY    -6 -13  71 N18G25    30.32S WCI -29          
CHARITON *     CLOUDY    -2  -9  71 N14G20    30.29R WCI -21          
DES MOINES     CLOUDY    -3 -11  68 N15       30.33R WCI -23          
GRINNELL*      CLOUDY    -3  -9  77 NW17      30.29R WCI -25          
KNOXVILLE *    CLOUDY    -2 -11  65 N15G22    30.29R WCI -22          
MARSHALLTOWN   CLOUDY    -4 -10  75 N15       30.31R WCI -25          
NEWTON *       CLOUDY    -4  -9  77 N14G20    30.31R WCI -24          
PELLA *        CLOUDY    -2  -8  73 N14       30.31R WCI -21          
PERRY *          N/A     -5 -12  70 N14       30.36S WCI -25          
$$
 
IAZ004>006-015-016-023>025-035-036-121500-
   NORTH CENTRAL IOWA
  
CITY           SKY/WX    TMP DP  RH WIND       PRES   REMARKS
ALGONA *         N/A     -9 N/A N/A N10       30.35S WCI -28          
CLARION *      CLOUDY    -9 -17  70 N14       30.36R WCI -31          
ESTHERVILLE    CLOUDY   -10 -15  78 N14       30.37S WCI -31          
FORT DODGE *   CLOUDY    -9 -15  75 N9        30.36R WCI -26          
MASON CITY     CLOUDY   -10 -16  74 N16       30.35R WCI -33          
FOREST CITY *    N/A     -8 -15  71 N15       30.36R WCI -29          
WEBSTER CITY * CLOUDY    -8 -17  65 N18       30.34R WCI -31          
IOWA FALLS *     N/A     -6 -12  73 N15G23    30.33R WCI -27          
$$

IAZ007>011-017>019-026>030-037>042-050>054-066-121500-
   NORTHEAST IOWA
  
CITY           SKY/WX    TMP DP  RH WIND       PRES   REMARKS
CEDAR RAPIDS     N/A      4  -3  73 N15       30.24R WCI -14          
CHARLES CITY *   N/A     -6 -13  71 N17       30.32R WCI -28          
CLINTON *        N/A     10   6  84 N16       30.20R WCI  -7          
DECORAH *        N/A     -4  -8  84 N13G20    30.28R WCI -23          
DUBUQUE          N/A      7   1  76 N18       30.19R WCI -12          
MONTICELLO *     N/A      7   0  72 N12       30.23R WCI  -9          
OELWEIN *        N/A      0  -6  78 N17G24    30.28R WCI -21          
WATERLOO         N/A     -4 -10  75 N13       30.31R WCI -23          
$$
 
IAZ064-065-067-068-078-121500-
   EAST CENTRAL IOWA
  
CITY           SKY/WX    TMP DP  RH WIND       PRES   REMARKS
DAVENPORT        N/A     10   4  76 N14       30.21R WCI  -6          
IOWA CITY        N/A      7  -2  66 N14G25    30.27R WCI -10          
MT. PLEASANT * CLOUDY     5   0  78 NW10G23   30.24R WCI -10          
MUSCATINE *      N/A      9   3  78 N15       30.26R WCI  -8          
QUAD CITIES      N/A     11   5  77 N13G20    30.18S WCI  -4          
$$
 
IAZ062-063-075>077-085>089-095>099-121500-
   SOUTHEAST IOWA
  
CITY           SKY/WX    TMP DP  RH WIND       PRES   REMARKS
BURLINGTON     CLOUDY     6   0  76 NW15      30.20R WCI -12          
FAIRFIELD *    CLOUDY     3  -6  66 N16       30.26R WCI -16          
FORT MADISON * CLOUDY     5   1  85 NW16      30.21F WCI -14          
KEOKUK *       CLOUDY     5   0  78 N14G22    30.22R WCI -12          
OSKALOOSA *      N/A      0  -6  78 N17       30.29R WCI -21          
OTTUMWA        CLOUDY     1  -7  68 N20       30.28R WCI -20          
WASHINGTON *   CLOUDY     3   0  85 N17G23    30.27R WCI -17          
$$

ABBREVIATIONS USED IN REMARKS
   TC - TEMPERATURES IN CELSIUS
  WCI - WIND CHILL INDEX
   HX - HEAT INDEX
  VSB - VISIBILITY  
$$

  

400 
ASUS43 KDMX 121401
RWRIA 

WEATHER ROUNDUP FOR IOWA
NATIONAL WEATHER SERVICE DES MOINES IA
800 AM CST FRI JAN 12 2018

NOTE: "FAIR" INDICATES FEW OR NO CLOUDS BELOW 12,000 FEET WITH NO
SIGNIFICANT WEATHER AND/OR OBSTRUCTIONS TO VISIBILITY.

* - THESE STATIONS ARE NOT NWS STATIONS...THUS NOT UNDER NWS
QUALITY CONTROL.  THEY ALSO DO NOT REPORT WEATHER SUCH 
AS PRECIPITATION OR FOG.  

IAZ001>003-012>014-020>022-031>034-043>046-121500-
   NORTHWEST IOWA
  
CITY           SKY/WX    TMP DP  RH WIND       PRES   REMARKS
CARROLL *      CLOUDY    -6 -13  71 N14       30.36S WCI -26          
CHEROKEE *     CLOUDY    -6 -13  73 N9        30.40R WCI -23          
DENISON *      CLOUDY    -4 -11  71 NW9       30.40R WCI -20          
LE MARS *      CLOUDY    -6 -13  71 N7        30.42S WCI -20          
ORANGE CITY *  CLOUDY    -6 -11  77 N9        30.38R WCI -22          
SHELDON *      CLOUDY    -8 -15  71 N10       30.37R WCI -26          
SIOUX CITY     CLOUDY    -3 -11  68 N12       30.44R WCI -21          
SPENCER        CLOUDY    -8 -15  71 N12       30.38R WCI -27          
STORM LAKE *   CLOUDY    -8 -13  77 N13       30.35R WCI -28          
$$
 
IAZ055>058-069>071-079>083-090>094-121500-
   SOUTHWEST IOWA
  
CITY           SKY/WX    TMP DP  RH WIND       PRES   REMARKS
ATLANTIC *     CLOUDY    -2 -11  65 N14       30.36R WCI -21          
AUDUBON *      CLOUDY    -4 -11  71 NW7       30.35R WCI -18          
CLARINDA *     CLOUDY     0  -8  71 N17       30.37R WCI -21          
COUNCIL BLFS * CLOUDY    -2  -6  84 N8G15     30.37R WCI -17          
CRESTON *      CLOUDY    -2  -9  71 N15       30.31R WCI -22          
HARLAN  *      CLOUDY    -4  -9  77 N12       30.41R WCI -22          
LAMONI         CLOUDY    -1  -9  68 N14       30.28R WCI -20          
RED OAK *      CLOUDY     0  -9  65 N13       30.38R WCI -18          
SHENANDOAH *   CLOUDY     1  -8  66 N13       30.39S WCI -16          
$$
 
IAZ047>049-059>061-072>074-084-121500-
   CENTRAL IOWA
  
CITY           SKY/WX    TMP DP  RH WIND       PRES   REMARKS
AMES           CLOUDY    -6 -11  79 N17       30.35R WCI -28          
ANKENY *       CLOUDY    -4 -11  71 N15       30.35R WCI -25          
BOONE *        CLOUDY    -6 -13  71 N18G25    30.32S WCI -29          
CHARITON *     CLOUDY    -2  -9  71 N14G20    30.29R WCI -21          
DES MOINES     CLOUDY    -3 -11  68 N15       30.33R WCI -23          
GRINNELL*      CLOUDY    -3  -9  77 NW17      30.29R WCI -25          
KNOXVILLE *    CLOUDY    -2 -11  65 N15G22    30.29R WCI -22          
MARSHALLTOWN   CLOUDY    -4 -10  75 N15       30.31R WCI -25          
NEWTON *       CLOUDY    -4  -9  77 N14G20    30.31R WCI -24          
PELLA *        CLOUDY    -2  -8  73 N14       30.31R WCI -21          
$$
 
IAZ004>006-015-016-023>025-035-036-121500-
   NORTH CENTRAL IOWA
  
CITY           SKY/WX    TMP DP  RH WIND       PRES   REMARKS
ALGONA *         N/A     -9 N/A N/A N10       30.35S WCI -28          
CLARION *      CLOUDY    -9 -17  70 N14       30.36R WCI -31          
ESTHERVILLE    CLOUDY   -10 -15  78 N14       30.37S WCI -31          
FORT DODGE *   CLOUDY    -9 -15  75 N9        30.36R WCI -26          
MASON CITY     CLOUDY   -10 -16  74 N16       30.35R WCI -33          
FOREST CITY *    N/A     -8 -15  71 N15       30.36R WCI -29          
WEBSTER CITY * CLOUDY    -8 -17  65 N18       30.34R WCI -31          
IOWA FALLS *     N/A     -6 -12  73 N15       30.32R WCI -27          
$$

IAZ007>011-017>019-026>030-037>042-050>054-066-121500-
   NORTHEAST IOWA
  
CITY           SKY/WX    TMP DP  RH WIND       PRES   REMARKS
CEDAR RAPIDS     N/A      4  -3  73 N15       30.24R WCI -14          
CHARLES CITY *   N/A     -6 -13  71 N17       30.32R WCI -28          
CLINTON *        N/A     10   6  84 N16       30.20R WCI  -7          
DECORAH *        N/A     -4  -8  84 N13G20    30.28R WCI -23          
DUBUQUE          N/A      7   1  76 N18       30.19R WCI -12          
MONTICELLO *     N/A      7   0  72 N12       30.23R WCI  -9          
OELWEIN *        N/A      0  -6  78 N17G24    30.28R WCI -21          
WATERLOO         N/A     -4 -10  75 N13       30.31R WCI -23          
$$
 
IAZ064-065-067-068-078-121500-
   EAST CENTRAL IOWA
  
CITY           SKY/WX    TMP DP  RH WIND       PRES   REMARKS
DAVENPORT        N/A     10   4  76 N14       30.21R WCI  -6          
IOWA CITY        N/A      7  -2  66 N14G25    30.27R WCI -10          
MT. PLEASANT * CLOUDY     5   0  78 NW10G23   30.24R WCI -10          
MUSCATINE *      N/A      9   3  78 N15       30.26R WCI  -8          
QUAD CITIES      N/A     11   5  77 N13G20    30.18S WCI  -4          
$$
 
IAZ062-063-075>077-085>089-095>099-121500-
   SOUTHEAST IOWA
  
CITY           SKY/WX    TMP DP  RH WIND       PRES   REMARKS
BURLINGTON     CLOUDY     6   0  76 NW15      30.20R WCI -12          
FAIRFIELD *    CLOUDY     3  -6  66 N16       30.26R WCI -16          
FORT MADISON * CLOUDY     5   1  85 NW16      30.21F WCI -14          
KEOKUK *       CLOUDY     5   0  78 N14G22    30.22R WCI -12          
OSKALOOSA *      N/A      0  -6  78 N17       30.29R WCI -21          
OTTUMWA        CLOUDY     1  -7  68 N20       30.28R WCI -20          
WASHINGTON *   CLOUDY     3   0  85 N17G23    30.27R WCI -17          
$$

ABBREVIATIONS USED IN REMARKS
   TC - TEMPERATURES IN CELSIUS
  WCI - WIND CHILL INDEX
   HX - HEAT INDEX
  VSB - VISIBILITY  
$$